Wind_Speed
22 22 22 25 28 28 26 25 23 24 26 27 26 27 28 28 26 26 25 24 22 21 20 20 20 20 19 18 17 16 14 14 14 14 13 13 13 13 13 12 12 11 10 10 10 10 9 10 10 9 9 10 11 11 10 10 10 9 8 7 6 6 7 8 9 8 8 8 8 8 8 8 9 10 10 11 11 12 12 13 12 12 11 11 12
19 21 22 25 27 27 27 26 24 23 26 28 28 29 27 24 23 23 22 22 23 23 22 21 20 20 19 18 16 16 16 15 14 14 14 13 13 13 12 12 11 10 10 10 10 8 9 10 11 10 10 10 10 10 10 10 10 9 8 7 7 8 8 8 8 8 9 9 10 10 10 10 10 11 11 12 13 13 13 13 13 12 12 12 13
16 19 23 25 26 24 24 23 21 23 26 29 30 28 24 21 22 22 21 20 21 22 21 20 19 18 17 17 17 16 16 16 15 15 14 13 12 12 12 11 11 11 10 11 10 9 9 11 11 10 9 10 9 10 10 10 10 10 8 7 8 8 8 9 9 9 10 10 11 12 12 12 12 13 14 15 15 15 14 13 12 12 12 12 13
13 16 20 23 22 20 20 19 19 23 28 30 28 24 20 20 22 22 21 20 20 21 20 20 19 17 16 16 16 16 17 17 16 15 14 13 12 12 12 12 12 11 11 12 11 10 9 9 9 9 9 9 9 10 10 9 9 8 7 7 7 7 7 8 9 10 9 9 10 11 11 11 12 12 13 14 14 13 13 12 11 11 11 12 12
14 16 18 17 17 18 18 17 19 24 27 27 24 20 20 22 22 22 20 20 21 22 22 21 20 18 16 16 16 17 18 17 16 14 13 12 12 13 13 13 12 12 12 13 12 10 8 7 8 8 9 9 9 9 9 8 7 7 6 6 6 5 5 5 7 8 6 6 6 6 6 8 8 8 8 9 10 10 10 10 10 10 10 10 10
16 17 18 16 17 18 17 16 18 23 26 24 21 20 21 22 21 21 22 23 23 23 23 22 20 19 18 17 17 18 19 18 16 14 12 12 13 13 13 12 12 13 13 13 12 11 9 9 9 9 9 9 8 8 8 7 7 6 5 4 4 4 4 3 5 6 6 5 4 3 3 4 5 6 6 6 7 7 7 8 7 8 8 8 9
18 19 20 19 19 20 18 17 18 22 24 21 20 21 22 22 22 23 24 25 24 23 24 23 21 21 20 18 19 20 19 17 15 13 12 12 12 11 10 11 12 13 13 12 12 12 11 10 10 10 10 9 9 8 7 7 6 5 5 5 5 5 4 4 4 5 5 5 4 5 4 3 4 5 5 5 5 6 7 8 7 7 8 9 10
19 21 23 23 21 20 19 18 19 21 22 19 19 20 20 21 22 23 24 25 24 24 24 24 22 22 21 21 21 21 19 16 13 12 12 11 11 10 10 11 11 12 12 11 11 12 11 10 10 9 9 9 9 8 7 7 6 6 7 7 7 6 6 5 6 6 6 6 6 6 7 6 6 6 6 6 6 7 9 10 9 9 10 11 11
16 18 21 22 22 22 20 19 18 20 20 19 18 17 17 18 19 20 24 24 23 23 24 23 23 23 23 23 22 20 17 15 14 13 12 11 11 11 11 11 11 11 11 10 11 11 11 10 10 9 9 8 7 7 7 7 7 8 9 9 9 8 8 9 8 8 9 9 9 9 9 9 9 9 9 8 9 10 12 12 11 12 13 13 13
13 14 16 17 19 20 20 18 18 19 20 19 18 17 17 18 17 20 24 24 22 22 23 23 23 24 25 25 22 20 18 16 16 15 13 11 11 12 12 12 12 11 10 10 10 10 10 9 9 9 8 8 7 7 7 8 9 9 9 10 10 11 12 12 12 11 11 12 13 13 13 12 12 13 13 12 12 14 15 15 15 15 17 17 15
13 13 13 12 13 16 16 16 17 19 19 18 17 17 19 19 18 19 22 23 21 21 22 22 23 24 25 25 23 21 19 17 16 15 13 12 13 13 14 14 13 12 11 11 11 10 10 9 9 8 8 8 8 8 9 10 11 11 11 12 13 13 14 14 15 15 15 15 15 16 16 15 15 17 17 16 16 17 17 18 19 19 20 20 19
11 10 10 8 10 13 13 13 17 20 19 17 16 17 19 20 20 19 20 21 20 20 21 22 22 22 23 24 23 21 19 18 16 15 14 15 15 15 15 15 14 14 13 12 11 11 10 9 9 8 8 9 9 10 11 11 12 13 14 15 16 17 17 17 18 18 19 18 18 19 19 19 18 19 19 19 20 20 20 21 21 22 23 23 22
8 9 8 7 7 10 12 13 16 18 18 17 17 18 20 21 21 20 21 21 20 20 21 21 20 20 22 23 23 21 20 18 17 15 16 16 16 16 16 15 15 15 14 14 14 13 11 10 9 9 10 10 10 10 11 12 13 14 16 17 18 19 20 21 21 21 22 22 21 22 22 22 21 21 21 22 24 24 24 24 25 26 26 26 26
7 7 6 6 5 6 10 14 16 16 16 17 17 18 22 23 22 20 19 19 19 20 20 19 20 21 23 23 22 21 20 18 16 15 16 17 17 17 16 16 16 16 16 16 15 14 12 11 10 10 11 11 10 10 10 11 12 13 15 17 18 20 21 21 22 23 24 25 25 25 26 26 25 25 25 26 27 28 28 28 28 28 29 29 29
6 6 5 5 3 3 7 12 15 15 15 15 16 20 23 23 22 20 18 18 19 19 19 20 21 22 23 23 22 21 20 19 17 16 18 18 19 18 17 17 16 17 16 15 15 14 13 12 11 11 11 11 10 10 11 11 12 13 14 16 17 18 19 20 22 23 24 25 26 26 28 28 29 29 30 30 31 31 31 31 30 31 32 33 33
4 5 5 5 4 3 5 8 10 14 16 16 17 21 23 22 21 20 19 19 20 20 20 22 22 23 23 22 21 21 21 20 19 19 20 20 20 19 19 18 17 18 17 16 16 16 16 15 14 14 13 13 12 13 13 14 15 16 17 18 18 20 21 21 22 23 24 25 25 26 27 28 29 30 31 32 32 33 33 33 33 34 35 36 36
5 5 5 6 6 4 5 7 7 11 17 19 19 21 23 23 22 22 21 21 21 22 23 23 22 22 22 20 19 19 19 20 20 21 21 21 20 20 21 20 20 19 18 18 18 17 17 18 18 18 18 18 17 17 18 18 18 19 20 20 21 21 22 23 23 24 25 25 26 27 27 27 28 29 30 32 33 33 34 34 35 36 38 39 40
7 6 7 7 8 6 5 7 8 9 13 16 19 22 23 23 24 24 24 24 23 23 24 23 23 23 23 22 20 18 18 18 19 20 20 20 20 21 21 20 20 20 21 21 21 20 20 20 21 21 21 22 22 22 23 23 23 22 21 22 22 22 23 23 23 24 24 25 25 26 27 27 28 29 30 31 33 34 35 37 38 39 41 42 43
7 8 9 9 8 6 6 8 10 10 12 14 17 20 20 21 25 26 24 24 24 24 24 24 24 25 26 25 23 21 19 19 19 19 19 19 20 22 21 19 18 19 21 22 22 22 23 24 24 24 25 25 25 25 26 28 27 25 23 23 23 23 22 21 21 21 22 23 23 24 25 26 27 28 29 31 33 35 37 39 40 41 42 43 44
7 8 8 6 4 3 4 7 10 10 13 14 15 17 19 23 27 28 26 25 25 25 25 25 25 26 26 25 24 23 22 21 20 20 20 20 21 22 22 22 22 21 20 20 20 22 24 26 27 28 29 28 28 29 30 30 27 24 22 23 23 23 22 21 21 22 23 23 24 25 26 26 27 28 30 31 33 35 36 38 40 41 42 43 44
6 6 5 3 3 2 3 6 8 10 12 15 17 19 21 25 27 25 24 24 24 24 25 26 27 27 26 24 24 25 25 23 22 21 21 21 21 22 23 24 24 22 21 21 22 24 26 27 28 29 30 31 31 30 28 24 22 20 21 22 23 23 23 24 24 25 26 27 27 28 29 30 31 32 33 34 36 37 38 40 41 42 44 45 46
8 6 4 3 3 3 3 4 7 9 11 14 18 21 20 19 21 22 23 24 24 24 26 27 26 24 23 22 24 25 25 25 24 23 22 22 22 23 24 24 24 24 24 25 26 27 28 29 30 31 32 32 29 24 20 18 19 20 21 22 24 24 25 26 27 28 29 30 30 31 32 33 34 34 35 36 37 38 40 41 42 43 44 46 47
8 6 4 3 4 5 5 4 4 7 9 13 19 20 17 14 15 18 22 26 26 25 27 29 28 24 24 25 26 26 26 28 28 28 28 27 26 25 25 26 27 27 27 28 29 29 30 30 30 30 28 25 21 17 17 18 19 20 22 24 25 27 27 28 29 30 30 31 31 31 32 33 33 34 35 36 37 38 39 40 42 43 44 45 46
7 8 8 7 6 7 8 7 5 4 4 7 12 13 12 10 11 13 15 20 22 23 24 26 27 25 24 23 24 25 27 28 27 27 29 28 27 27 28 29 29 29 29 28 27 24 22 21 19 18 17 16 16 17 19 20 21 22 25 26 27 28 29 29 29 29 29 29 29 29 30 30 31 32 33 34 35 36 37 38 39 40 41 42 43
7 8 10 10 9 9 10 11 11 8 5 5 5 7 7 9 11 13 14 14 15 17 18 20 22 22 21 20 21 23 24 24 22 21 22 23 23 24 26 27 27 26 24 22 18 15 14 14 15 15 16 17 19 20 21 22 24 26 27 28 29 29 28 28 27 27 27 27 27 28 28 28 29 29 29 30 31 32 33 34 35 36 37 38 40
9 8 8 10 12 12 12 14 14 13 12 11 11 11 10 8 8 11 13 14 14 15 17 18 17 15 15 16 17 17 16 15 14 14 14 14 15 16 16 16 16 16 15 14 14 14 16 17 18 19 20 22 23 24 24 25 26 26 27 28 28 27 26 25 25 25 25 25 26 26 26 26 27 27 28 29 30 31 32 34 35 36 37 39 40
11 7 7 10 13 14 15 15 15 15 15 15 14 14 13 11 9 8 9 11 12 13 13 13 12 11 10 10 10 10 9 8 8 8 9 10 10 10 10 11 11 12 14 15 17 18 20 21 22 23 24 25 26 26 26 25 26 26 26 26 25 25 24 24 24 24 24 24 25 25 25 26 27 28 30 31 32 33 35 36 37 38 39 40 41
12 9 8 10 13 15 17 16 15 15 15 14 12 12 13 14 13 12 12 12 11 9 9 9 9 10 10 9 9 10 9 9 8 9 9 10 11 11 12 13 14 16 17 19 20 22 23 24 25 26 26 27 26 26 26 25 25 24 24 23 23 23 23 23 23 24 24 24 25 26 27 28 29 30 32 33 34 35 36 36 37 37 38 38 38
11 10 10 12 13 15 17 17 16 16 16 15 14 15 16 16 15 15 15 15 13 12 12 12 12 11 12 12 12 12 11 10 11 11 12 13 14 15 16 17 18 20 21 22 23 24 25 25 26 26 26 26 25 25 24 24 23 22 22 22 21 21 22 22 23 24 24 25 26 27 28 30 31 32 33 33 33 34 33 33 33 33 34 34 34
9 9 10 12 14 14 15 16 17 17 17 18 18 19 19 19 19 19 19 19 18 16 16 16 16 16 16 15 15 14 13 12 12 13 14 16 17 18 19 20 21 22 23 24 24 25 25 25 25 25 25 24 24 23 22 21 21 20 20 20 20 21 21 22 22 23 25 26 28 29 31 31 32 31 31 30 30 30 29 29 29 29 29 30 30
5 6 8 11 12 13 14 15 16 15 14 15 16 18 19 19 20 22 23 23 23 22 21 20 20 20 19 18 17 16 14 13 13 14 15 16 17 19 20 21 22 22 23 23 24 24 24 24 24 23 23 23 22 21 20 19 19 18 18 19 19 20 21 21 23 24 26 28 29 30 30 29 29 28 28 28 28 28 27 27 27 26 26 26 26
5 5 6 8 10 11 12 13 15 15 14 14 14 14 16 17 17 18 19 20 20 20 20 19 19 18 18 17 16 14 12 12 13 14 15 17 17 19 20 21 21 22 23 23 23 23 23 23 22 21 21 20 19 19 18 17 17 17 17 17 18 19 21 23 25 26 27 27 27 26 26 26 26 27 27 27 27 26 26 26 25 25 25 25 24
6 6 7 7 8 9 10 11 12 12 13 13 14 14 15 15 16 16 16 15 15 15 14 14 14 13 13 13 12 12 12 13 14 15 16 17 18 19 20 21 21 22 22 22 22 22 21 20 20 19 19 18 18 17 16 15 15 15 16 17 19 21 23 24 25 25 24 23 23 23 24 25 25 25 25 24 24 24 23 23 24 24 24 24 23
7 7 8 8 9 9 10 10 11 11 11 11 12 12 13 13 14 14 13 13 12 12 12 12 12 12 12 13 14 14 15 15 16 17 18 19 20 20 20 20 20 21 21 21 20 20 20 19 19 18 17 16 15 14 14 14 14 15 17 18 20 22 23 23 23 22 22 22 22 23 23 23 23 22 22 21 21 21 21 21 22 22 22 21 21
8 8 8 8 9 9 9 9 10 10 10 10 11 11 12 12 13 13 12 12 12 12 12 13 13 13 14 15 15 16 16 17 17 18 19 20 20 20 20 19 19 19 19 19 19 19 19 18 17 16 15 14 13 13 13 13 15 17 18 20 21 22 22 22 22 21 21 22 22 21 21 21 21 21 21 20 20 19 19 19 19 19 19 18 18
9 9 8 9 9 9 9 10 10 10 10 10 10 10 10 10 11 11 11 12 12 13 14 14 15 15 16 16 17 17 17 17 17 18 19 19 19 19 18 18 17 18 18 18 18 17 17 16 15 15 14 13 13 13 13 14 16 18 19 20 21 21 22 22 21 20 20 21 21 21 21 21 21 21 21 20 19 18 17 16 16 16 15 14 14
10 10 10 10 10 9 9 10 10 10 11 11 11 11 11 11 11 11 11 12 13 13 15 15 16 15 15 15 15 15 15 16 16 17 17 18 17 17 18 17 17 18 18 17 17 16 16 15 14 13 13 12 13 13 15 16 17 18 19 20 20 20 20 19 18 19 19 20 21 21 21 21 21 21 20 19 18 16 14 13 12 12 12 12 13
10 10 10 10 10 10 10 10 10 11 12 12 13 13 13 13 12 11 12 12 14 14 15 15 15 14 13 13 13 14 15 16 17 16 16 16 17 18 18 17 17 17 17 16 16 15 14 13 12 12 12 12 13 14 16 17 17 18 18 18 18 18 17 17 17 18 19 20 20 20 20 21 20 19 18 17 15 13 12 11 11 11 12 12 14
9 9 10 10 10 10 10 10 10 11 11 12 12 13 13 13 13 12 12 13 14 14 14 14 14 13 12 12 12 14 15 16 16 16 16 16 16 17 17 16 16 15 15 15 14 14 13 12 11 11 11 12 13 14 15 16 16 16 16 16 16 15 16 16 17 18 18 19 19 19 20 19 18 16 15 14 13 12 11 11 11 12 13 14 15
8 8 9 9 9 10 10 11 11 11 12 12 12 12 13 14 13 13 13 14 14 14 14 14 14 13 12 11 12 14 15 16 15 15 15 15 15 15 15 14 14 14 13 13 13 12 11 10 10 10 11 12 12 13 13 14 14 14 15 15 14 14 15 16 16 17 17 17 18 18 18 18 16 14 13 13 12 12 12 11 11 12 13 14 15
7 8 9 9 9 10 10 11 11 12 12 12 12 12 13 14 14 13 12 12 13 14 15 15 14 13 12 11 12 13 14 14 14 13 13 14 14 14 13 13 13 13 12 12 11 10 10 10 10 10 11 11 12 12 12 12 12 13 13 13 14 14 15 16 16 17 17 16 16 16 15 15 14 13 12 12 12 11 11 11 11 12 12 13 14
7 7 8 9 9 10 10 11 11 11 12 12 12 12 12 13 12 11 10 10 11 13 14 15 14 13 12 12 12 13 14 15 14 13 13 13 13 13 13 13 12 12 11 10 10 9 9 9 9 9 10 10 10 10 10 10 11 11 12 13 14 14 15 15 16 16 15 15 14 14 12 11 11 11 10 10 9 8 8 9 10 11 12 12 13
6 7 8 9 10 10 10 11 11 11 11 11 11 11 11 11 11 10 10 10 11 12 13 13 14 14 13 13 13 14 15 15 14 14 14 14 13 13 12 12 11 11 10 10 9 9 8 8 8 8 9 8 8 8 9 9 10 11 12 12 13 13 14 14 13 13 12 12 12 11 10 9 9 8 7 6 6 7 8 9 10 11 12 12 13
6 6 7 8 9 10 10 10 11 11 11 11 11 11 10 9 9 10 10 11 12 13 13 14 14 15 14 14 13 14 14 14 13 13 13 13 13 12 11 11 10 10 10 9 8 8 7 7 7 7 7 6 7 7 8 8 9 10 10 11 11 11 11 11 11 10 9 9 9 9 9 8 6 6 5 5 7 8 9 10 11 11 12 12 13
6 6 7 7 8 8 9 9 9 9 9 10 10 10 10 9 9 10 10 11 12 13 14 14 15 15 15 15 14 14 14 13 13 13 12 12 12 11 11 11 10 10 9 9 7 7 6 6 6 5 4 4 4 5 6 7 8 8 9 9 9 9 9 9 9 8 7 7 7 7 6 5 3 4 5 6 8 9 9 10 10 11 12 12 13
7 7 6 6 6 7 7 7 8 8 8 9 9 10 10 9 9 10 10 11 12 12 13 14 15 15 15 15 15 15 14 14 14 13 12 12 12 11 11 11 11 10 9 8 7 6 6 5 4 3 2 2 2 3 4 5 6 7 8 8 8 8 8 7 7 6 6 6 5 5 4 4 5 6 7 8 8 9 9 10 10 11 11 12 12
8 7 7 6 6 6 6 6 7 7 8 9 10 11 11 11 11 11 11 11 12 12 13 14 15 15 15 15 15 14 14 14 14 14 12 12 11 11 11 11 11 10 9 8 7 6 5 4 3 2 1 1 2 2 3 4 5 6 6 6 6 6 6 5 5 6 6 6 5 5 6 6 7 7 7 8 8 8 9 9 9 10 10 11 12
8 8 8 8 7 7 7 7 7 8 9 10 11 12 13 14 14 13 12 11 11 12 12 13 14 15 15 15 15 14 13 13 14 13 12 11 10 10 11 11 11 10 9 8 7 6 5 4 3 2 2 2 2 3 3 4 4 4 4 4 4 4 5 5 5 6 6 6 6 6 6 7 7 7 7 8 8 9 9 9 9 9 10 11 13
10 9 9 9 9 9 10 10 10 10 10 11 12 13 14 15 16 16 16 14 13 13 13 13 13 14 15 15 15 14 12 12 12 12 11 11 11 11 12 11 11 10 9 8 6 6 5 4 3 3 3 3 3 3 3 2 1 1 2 3 3 4 4 5 5 5 5 6 6 6 6 7 7 7 8 8 8 8 8 8 9 10 11 13 14
10 10 10 10 10 11 11 11 12 12 12 13 14 15 15 16 17 18 18 18 17 16 15 14 14 13 13 14 14 14 13 11 11 11 11 11 11 12 12 11 10 9 8 7 6 6 5 5 4 4 4 4 3 3 1 1 2 3 3 3 3 3 3 4 5 5 6 6 7 7 7 7 7 7 7 7 8 8 8 8 9 10 12 13 13
10 10 11 11 11 11 12 12 12 13 13 14 14 15 16 17 18 19 19 19 19 18 18 16 15 13 12 12 13 14 13 12 11 11 11 11 12 12 12 12 11 9 8 7 7 6 6 5 5 5 5 4 4 3 3 4 4 3 2 2 2 3 4 4 5 6 6 7 7 7 7 7 7 7 7 7 7 7 8 9 10 11 11 12 12
Wind_Direction
196 197 209 223 231 230 228 225 222 223 224 224 225 221 216 214 212 215 215 208 204 203 200 199 199 200 205 208 209 212 215 217 217 218 218 216 214 214 215 216 214 212 211 209 207 208 211 214 216 214 215 220 223 226 227 228 232 231 229 231 225 217 222 234 241 247 249 249 248 247 249 255 259 258 258 261 263 267 273 276 276 271 265 258 253
195 197 211 227 234 232 229 225 221 222 223 225 228 225 218 214 213 217 218 212 209 203 192 191 198 200 203 208 210 211 212 211 211 211 213 212 210 212 215 215 214 212 211 209 207 206 207 210 212 211 212 218 223 223 222 226 230 227 227 230 220 212 217 228 239 247 250 250 252 252 250 248 251 254 255 254 256 261 267 271 271 267 261 254 249
204 205 215 229 237 237 234 230 224 223 223 225 229 225 214 212 215 215 214 212 212 207 191 185 195 202 205 210 210 207 205 202 201 201 203 205 205 209 214 215 213 209 206 206 208 207 208 213 214 209 206 211 217 218 219 225 226 223 226 230 223 220 223 230 240 248 254 257 257 258 256 253 253 256 257 258 261 265 269 269 267 266 264 259 254
229 229 230 233 241 247 246 242 237 232 228 224 225 222 214 218 219 212 209 207 205 204 195 189 193 199 204 208 206 201 196 195 196 195 196 198 200 203 209 212 211 208 203 203 207 210 212 218 218 209 204 209 214 214 216 224 228 225 227 233 235 239 241 241 242 243 250 259 259 259 261 263 265 263 262 264 266 268 267 265 264 264 264 263 264
249 250 250 246 246 248 247 246 244 240 235 228 222 216 216 223 221 211 206 203 202 201 196 190 190 194 202 206 200 195 191 191 193 194 194 195 195 198 204 206 207 206 205 204 206 210 212 215 215 211 210 212 214 213 215 222 228 225 227 237 248 254 249 241 234 228 231 245 254 263 270 272 273 270 262 260 262 263 263 266 267 267 268 272 275
257 257 258 255 249 247 248 251 247 239 235 230 218 213 217 221 219 212 203 198 198 196 190 189 191 195 201 202 195 192 191 191 194 194 192 193 196 202 205 205 205 206 207 207 206 206 207 210 213 215 217 221 222 221 220 222 223 224 230 239 246 244 231 219 216 212 211 217 235 263 269 262 266 269 269 266 266 266 265 266 265 265 269 273 274
264 261 260 257 251 247 246 248 244 237 234 227 215 214 215 208 207 210 205 194 188 185 186 192 197 197 198 197 191 190 191 190 190 188 186 192 203 212 214 209 209 210 210 210 209 206 208 214 217 217 220 228 230 226 222 221 223 234 246 245 240 239 234 229 228 221 211 209 226 251 255 245 252 267 280 284 282 277 270 266 263 263 264 264 266
272 268 266 265 260 253 246 244 241 239 236 226 216 216 214 205 203 207 202 187 177 183 192 197 197 195 193 190 186 186 187 187 187 189 194 203 212 218 217 212 211 212 211 210 210 211 212 217 220 221 227 232 232 228 224 224 227 235 245 248 250 255 259 257 256 254 248 238 238 251 259 259 258 264 276 284 286 281 276 275 276 274 269 264 266
279 274 270 268 265 261 257 253 244 236 233 224 216 216 214 208 200 192 188 181 178 187 194 193 192 192 189 185 184 186 189 189 193 200 206 211 213 210 207 208 210 210 209 208 209 211 213 213 216 221 229 233 236 239 240 239 240 242 246 252 258 264 269 269 268 269 269 266 263 264 266 269 271 269 266 268 271 273 274 276 276 275 272 268 267
284 274 271 268 262 257 256 255 242 229 225 220 212 206 203 198 189 183 184 183 181 187 190 188 188 188 186 184 186 191 194 192 195 202 206 206 206 204 201 204 207 205 205 205 205 208 209 208 213 220 227 233 240 248 255 259 260 260 260 262 264 267 271 274 275 274 272 271 273 275 274 277 282 280 274 270 269 268 269 270 269 270 271 271 269
287 273 271 270 259 249 246 243 231 221 220 218 209 205 202 195 190 190 187 182 183 187 190 189 187 186 187 187 189 193 194 192 194 199 203 203 201 201 201 200 200 201 203 204 204 208 210 210 213 219 227 238 246 252 259 264 267 269 269 269 268 269 272 276 279 278 276 274 274 277 278 279 281 280 279 277 274 271 269 269 269 269 272 272 270
292 283 280 273 253 244 239 228 220 217 217 216 214 211 206 194 185 185 185 184 186 189 189 189 187 188 190 190 191 194 193 194 197 198 201 203 200 198 197 194 196 199 201 203 205 211 216 218 220 223 229 238 248 256 261 264 264 265 268 271 273 275 277 279 279 279 279 277 276 276 276 276 276 276 277 277 278 278 276 275 275 275 275 276 276
307 305 302 294 267 248 239 223 218 218 215 217 221 214 203 193 183 180 184 185 186 189 190 189 189 193 196 194 193 196 196 197 200 201 204 205 203 200 195 193 197 202 203 204 206 207 212 219 224 227 229 233 241 251 258 261 263 263 264 267 269 272 275 277 278 278 278 278 277 277 276 277 279 279 278 278 279 281 281 281 281 282 283 284 284
326 319 308 308 302 263 241 223 217 221 217 215 215 205 196 192 185 181 182 183 185 188 189 189 194 199 200 197 196 197 199 200 202 207 213 212 207 204 200 198 203 210 211 209 208 208 210 214 216 217 219 224 230 237 244 252 259 262 264 264 265 266 268 270 272 275 276 278 279 280 281 283 283 281 279 278 279 280 282 283 285 287 288 289 289
327 324 309 308 316 285 256 234 219 218 217 211 203 195 192 192 190 186 183 183 186 188 188 191 198 202 200 198 197 199 200 202 205 214 221 219 213 209 207 205 209 217 220 217 213 215 218 218 216 213 213 219 228 236 242 248 253 256 259 261 262 263 264 265 267 269 272 274 276 278 279 280 280 279 279 280 281 283 284 285 285 286 287 287 288
339 333 319 310 302 275 268 258 228 207 204 202 198 194 189 188 194 196 191 191 193 191 192 196 198 200 200 197 196 198 201 205 210 217 222 220 217 215 214 213 216 220 221 219 219 223 226 228 227 225 224 229 237 244 249 253 256 259 261 263 265 267 269 269 270 271 272 273 274 274 274 275 274 274 275 276 279 280 282 283 283 283 283 284 285
15 357 334 314 299 271 254 267 254 220 211 204 197 196 190 187 197 202 197 198 201 198 199 202 200 200 200 197 198 199 201 206 211 216 221 222 221 221 220 219 219 221 222 223 227 232 233 232 233 236 239 244 248 252 255 257 258 261 264 267 269 272 273 273 274 274 275 276 276 274 273 272 272 270 269 269 271 273 275 277 278 279 280 282 282
14 355 335 319 307 287 249 253 259 242 229 213 201 203 201 194 198 204 200 199 202 201 200 202 203 205 204 203 205 207 208 211 213 216 221 224 225 229 229 223 220 223 227 230 236 241 244 245 246 249 254 258 261 262 263 263 262 263 267 272 274 275 275 274 273 273 274 274 276 276 275 274 273 272 271 270 271 272 274 275 276 277 279 280 281
345 337 331 325 314 291 252 249 254 246 239 229 213 212 215 208 202 202 201 201 200 199 200 203 206 213 215 213 213 216 220 223 223 224 227 227 229 235 238 235 232 234 238 240 243 247 251 252 254 257 263 266 267 267 267 266 265 264 268 273 274 274 274 273 272 274 274 275 276 276 277 276 276 276 276 275 275 275 276 276 277 278 279 280 281
320 325 332 337 329 299 266 263 264 254 249 245 225 211 216 217 208 201 199 203 203 202 206 211 212 216 221 222 220 221 223 225 224 225 227 227 230 235 240 243 245 247 248 248 248 251 254 256 259 263 266 267 269 271 269 266 262 261 265 269 271 272 273 273 275 277 279 280 280 280 281 280 280 279 278 278 278 278 278 279 280 281 282 282 283
331 333 341 359 10 339 290 269 256 242 244 250 242 227 219 214 208 199 193 199 206 208 209 213 216 220 224 226 223 221 221 222 224 226 227 228 231 235 240 244 247 249 251 252 254 256 259 261 263 265 266 268 272 272 267 262 259 260 264 269 272 275 277 278 279 280 281 282 282 282 282 282 282 281 280 280 280 280 281 281 281 282 283 283 283
343 357 358 342 339 335 300 265 248 238 235 231 229 233 233 221 209 201 192 192 199 203 202 202 206 212 215 213 212 213 214 215 219 223 225 226 230 235 239 242 246 249 252 254 256 257 259 262 264 265 267 268 269 265 260 259 263 266 270 273 276 277 278 279 279 279 280 280 281 281 281 281 281 281 281 281 281 281 282 282 282 283 283 284 284
329 342 333 302 289 294 295 279 249 245 243 225 215 221 236 235 218 211 208 206 207 208 206 203 203 207 211 212 212 214 217 221 225 228 228 229 232 236 239 241 245 248 249 251 255 258 261 264 266 267 267 265 263 262 264 267 270 272 274 275 276 276 277 277 278 279 279 280 281 282 282 283 283 283 283 283 283 283 283 283 284 284 284 285 285
310 318 311 303 283 268 271 279 274 253 237 227 217 218 230 230 211 206 212 214 215 216 214 214 217 222 227 228 226 223 224 228 230 230 229 229 231 234 238 241 244 247 251 255 259 263 266 269 272 272 270 267 268 270 272 274 276 276 277 277 277 278 279 280 281 282 283 284 284 285 285 284 284 284 284 284 284 284 284 284 284 285 285 285 285
296 299 293 298 295 270 249 251 257 241 186 174 199 212 220 217 207 207 213 216 216 217 217 220 226 229 228 227 226 226 226 226 226 228 230 234 237 241 244 246 248 251 255 258 261 265 268 273 277 279 277 275 274 275 275 277 279 279 279 280 281 281 282 283 284 285 285 286 286 286 286 285 285 285 285 286 287 287 287 287 287 287 287 287 286
287 289 279 281 285 275 254 239 228 205 180 179 195 206 213 213 205 207 211 212 211 213 216 220 222 221 221 221 222 224 227 225 225 230 234 238 244 247 248 248 248 249 252 256 262 268 273 276 278 278 278 277 277 278 279 280 280 281 281 282 282 284 285 285 285 285 285 286 287 288 289 289 290 291 291 292 292 293 293 292 292 292 291 290 289
271 281 283 275 269 264 254 238 215 193 185 188 194 199 204 203 195 190 197 206 210 211 215 219 214 204 205 211 212 213 214 213 217 223 225 229 236 240 242 245 247 252 258 265 271 274 277 278 279 279 279 279 280 280 281 281 281 281 281 281 282 283 284 284 285 286 288 290 291 292 293 294 295 296 296 297 297 297 296 296 295 294 293 292 292
253 257 268 268 259 252 244 228 208 196 193 193 195 197 197 199 200 201 206 215 217 207 202 208 205 196 193 195 198 203 206 211 218 225 229 234 239 243 248 253 258 264 269 272 274 276 277 277 278 278 279 280 280 281 281 280 279 278 278 278 280 280 282 284 287 289 291 292 294 295 297 298 299 300 300 299 299 298 297 296 295 294 294 293 293
243 246 255 255 248 241 233 220 207 201 199 202 208 209 203 201 203 201 202 206 206 200 197 199 199 196 195 198 204 209 213 218 225 230 236 242 247 252 256 260 265 269 271 272 273 274 274 275 276 276 277 277 278 278 277 277 276 277 277 277 278 279 283 286 288 291 294 297 299 302 303 303 303 302 301 300 300 299 299 298 297 297 297 296 296
231 235 246 252 252 247 237 227 218 210 203 201 202 203 205 210 213 212 211 211 210 209 208 207 206 206 207 209 212 217 223 228 234 240 245 250 255 260 264 267 270 272 272 273 273 273 273 273 273 273 273 273 272 273 273 274 275 275 274 275 277 280 284 288 293 297 300 302 303 303 302 302 302 302 303 303 303 304 304 304 304 303 302 301 300
230 238 247 251 255 256 252 245 239 235 227 215 205 201 203 209 214 217 219 221 221 219 218 216 215 215 215 217 221 225 230 236 243 250 254 258 262 266 268 270 271 272 272 271 271 270 270 269 269 269 269 269 270 270 271 271 270 270 270 274 279 285 292 298 302 303 303 302 300 300 301 303 305 307 309 311 311 312 313 312 311 309 307 305 304
230 242 254 257 258 259 258 255 252 251 248 242 233 225 221 220 222 224 225 227 227 227 226 225 224 223 225 229 235 241 247 253 256 260 263 266 267 268 268 268 268 268 267 267 266 267 267 267 268 268 269 269 269 269 268 267 268 271 276 283 291 299 303 305 304 302 300 299 299 302 306 310 312 314 316 317 318 318 318 316 315 314 313 313 313
241 243 254 265 270 270 270 270 267 263 256 250 245 241 238 236 236 236 237 238 241 242 242 243 244 245 247 252 259 266 270 270 269 268 267 267 266 265 264 264 263 264 264 265 266 267 268 269 269 268 267 267 267 268 270 273 278 285 293 300 305 305 303 301 299 299 299 301 305 310 313 315 316 318 320 321 321 321 320 318 317 317 318 318 318
272 272 274 277 280 279 279 281 283 284 281 275 268 264 262 260 259 257 256 259 262 265 267 268 269 272 273 274 276 277 275 272 269 267 266 264 263 263 262 262 262 262 263 264 266 267 267 267 266 266 267 268 270 273 279 286 294 300 304 304 302 299 298 298 300 303 305 308 312 314 316 317 319 320 321 321 321 321 320 319 317 317 316 317 320
287 288 287 287 287 286 284 284 284 286 288 288 285 283 282 282 282 282 281 280 279 279 278 277 276 275 275 273 272 270 268 265 264 262 261 261 260 260 260 260 261 262 262 263 264 265 265 266 267 268 270 272 276 282 290 296 300 300 298 296 296 298 300 303 306 308 309 310 312 314 315 317 319 321 322 322 323 323 321 319 317 316 318 321 325
292 292 290 288 287 287 285 283 282 281 280 279 278 278 277 277 278 278 278 277 276 273 272 270 267 266 266 265 264 264 263 262 259 258 257 257 258 259 260 261 261 262 262 263 263 264 265 266 268 272 275 279 284 289 293 294 294 293 294 297 300 303 305 306 307 308 309 310 311 313 316 319 322 324 324 324 325 324 322 320 319 319 321 323 325
294 294 293 291 288 286 285 285 284 282 280 279 278 276 275 274 274 273 273 273 272 271 270 269 267 266 266 266 267 266 265 263 260 258 257 258 259 262 263 263 263 264 264 265 265 265 265 267 269 272 276 281 285 287 287 289 292 295 298 302 304 305 305 306 307 308 308 310 313 317 320 323 325 325 323 322 323 323 322 320 317 316 315 315 317
297 296 295 294 292 290 287 285 284 283 284 285 286 285 284 284 284 283 280 276 273 270 270 270 270 268 267 266 266 266 265 264 262 261 261 261 262 264 264 265 265 264 263 263 262 262 262 262 264 268 274 278 282 285 289 293 297 300 303 305 306 305 305 305 306 308 311 313 316 319 321 322 322 321 319 318 317 317 314 308 305 305 308 313 318
293 293 293 294 294 292 288 284 279 278 278 280 282 284 285 286 287 286 284 281 277 273 270 267 266 265 262 260 258 258 260 262 264 264 264 264 264 264 265 266 265 263 261 259 257 256 257 260 263 269 276 281 286 290 294 298 301 304 307 307 306 304 303 304 308 311 314 315 316 317 317 316 315 314 312 310 308 305 300 298 301 307 315 321 325
294 293 293 295 296 294 292 291 289 287 285 283 283 282 281 280 280 279 278 276 276 275 273 270 267 266 265 262 259 257 259 263 267 269 269 269 269 269 269 269 267 264 261 259 258 258 260 264 270 276 282 287 291 294 298 302 306 308 309 307 306 305 307 310 313 314 314 313 312 311 311 310 308 306 304 301 298 295 294 298 307 317 324 328 330
305 305 304 302 300 299 300 301 302 301 299 296 292 286 282 280 280 280 278 274 272 271 271 272 273 276 277 277 275 272 271 273 276 276 274 272 272 271 268 265 262 260 259 258 259 262 265 270 277 282 286 290 293 297 302 307 310 311 312 312 313 314 315 315 314 313 310 307 306 306 308 308 306 304 300 295 291 290 296 306 318 327 332 333 332
317 317 312 305 301 301 303 305 305 305 304 301 297 292 287 285 284 285 283 278 272 269 270 273 277 282 286 287 287 285 284 285 286 284 280 275 270 266 263 260 257 256 255 256 256 259 265 272 279 283 286 289 295 301 308 314 318 320 322 323 322 320 317 314 312 310 308 306 305 307 308 309 307 304 300 296 294 298 310 322 331 335 336 334 331
328 322 316 310 308 309 309 307 304 303 302 301 300 297 295 292 291 291 289 284 281 279 280 281 284 287 290 291 289 287 286 286 286 283 280 276 270 264 260 257 255 253 252 252 254 259 266 272 276 279 283 290 300 309 318 326 331 333 333 332 327 322 319 317 316 316 314 312 313 315 314 310 305 300 297 299 309 321 332 339 342 341 338 336 334
338 332 326 321 318 318 317 313 310 308 308 307 303 301 300 299 298 296 294 292 291 291 290 291 291 292 292 292 289 285 282 280 278 277 276 274 270 264 259 256 255 252 250 250 253 259 263 267 271 277 287 299 312 323 334 342 345 344 342 337 332 329 328 328 329 329 329 331 334 332 325 314 303 300 308 324 338 346 350 351 348 345 343 341 339
351 349 344 337 332 329 326 323 322 322 322 316 310 307 306 306 302 298 296 296 297 296 296 297 297 296 295 294 292 289 283 277 272 270 270 268 264 260 257 254 251 249 248 248 249 250 253 258 266 277 292 310 327 340 349 352 351 348 345 342 340 339 339 340 342 344 347 351 349 340 328 321 327 343 354 360 1 0 358 354 350 348 346 344 343
4 5 0 351 343 339 335 332 332 332 330 324 318 314 312 310 307 306 305 304 303 300 300 299 299 298 297 296 293 291 286 278 270 265 262 261 257 254 251 248 244 242 240 238 235 235 238 244 254 265 284 321 346 356 356 352 347 345 344 343 343 345 346 350 354 360 4 6 4 357 359 12 22 19 15 11 6 0 355 352 351 350 349 348 349
6 6 4 0 355 349 344 341 338 333 328 324 319 315 312 310 308 307 307 305 303 303 304 304 303 302 300 298 295 291 284 277 269 262 257 255 251 245 239 236 234 232 228 222 220 222 225 228 236 249 273 323 346 347 344 341 340 341 342 343 347 352 0 7 13 18 22 24 22 21 21 23 21 16 10 5 0 355 353 353 354 356 357 357 358
5 2 360 356 352 346 341 339 336 331 325 321 316 312 311 310 309 307 305 304 302 302 304 305 306 305 303 301 297 290 281 273 266 259 253 247 239 230 225 223 222 218 213 210 209 212 214 214 218 234 268 302 318 324 327 330 336 345 356 4 10 18 25 29 30 28 25 20 15 13 12 11 8 4 359 356 354 353 354 356 359 2 3 1 358
12 8 3 355 348 341 335 331 328 324 320 316 312 309 308 308 308 307 307 307 306 303 300 298 299 300 301 299 293 285 275 267 260 251 241 232 224 218 215 214 212 208 206 205 205 205 205 206 213 233 264 285 295 301 309 324 353 48 68 64 53 42 34 29 24 18 9 1 357 356 355 353 352 350 349 349 351 352 352 355 357 358 357 354 351
8 8 6 2 355 349 344 339 333 328 322 315 310 307 305 304 303 303 303 304 304 302 299 295 292 291 292 291 286 278 268 258 249 239 229 220 215 214 211 210 209 208 206 205 205 205 207 214 226 242 256 265 270 273 263 160 131 119 104 84 57 33 18 10 5 0 355 349 342 337 336 338 341 342 344 348 350 350 350 350 351 349 348 348 350
349 350 351 351 350 348 347 344 342 339 334 329 323 318 313 309 305 304 303 303 303 301 298 293 287 281 279 279 276 271 264 254 244 235 226 218 214 214 213 213 212 210 207 206 212 219 227 234 239 241 241 242 237 217 181 159 147 133 106 70 32 11 2 358 355 353 349 342 334 330 332 337 340 341 345 349 349 347 346 346 346 346 349 354 359
Height
3092 3094 3095 3096 3096 3097 3098 3099 3100 3101 3102 3103 3103 3103 3103 3106 3109 3112 3115 3117 3118 3119 3120 3122 3124 3125 3127 3128 3130 3131 3132 3133 3134 3135 3136 3137 3139 3140 3141 3142 3143 3144 3145 3146 3147 3148 3148 3148 3148 3149 3149 3150 3151 3152 3153 3154 3154 3155 3155 3156 3158 3158 3158 3158 3158 3158 3159 3159 3159 3159 3160 3160 3161 3161 3161 3161 3161 3162 3162 3162 3161 3161 3161 3161 3162
3088 3090 3091 3091 3091 3092 3093 3094 3096 3098 3099 3100 3099 3099 3102 3107 3110 3112 3115 3117 3118 3118 3118 3120 3123 3124 3125 3127 3129 3130 3131 3132 3133 3134 3135 3136 3138 3139 3140 3141 3142 3143 3144 3145 3146 3147 3147 3147 3147 3148 3149 3150 3151 3152 3153 3153 3154 3154 3155 3156 3157 3157 3158 3158 3157 3158 3158 3159 3159 3159 3159 3159 3160 3160 3160 3160 3160 3160 3160 3160 3160 3160 3160 3160 3160
3086 3087 3087 3088 3088 3090 3091 3093 3096 3097 3097 3097 3096 3099 3104 3107 3109 3111 3113 3115 3117 3118 3117 3118 3121 3124 3125 3126 3128 3129 3130 3131 3132 3133 3134 3136 3137 3138 3139 3140 3142 3143 3144 3144 3145 3146 3146 3147 3147 3148 3149 3150 3151 3152 3152 3153 3153 3154 3154 3155 3156 3157 3157 3157 3157 3157 3158 3158 3158 3158 3158 3159 3159 3159 3159 3159 3159 3159 3159 3159 3159 3159 3159 3159 3159
3087 3087 3087 3087 3089 3091 3092 3095 3097 3096 3094 3094 3095 3100 3105 3106 3107 3109 3111 3113 3116 3117 3118 3118 3120 3122 3124 3126 3127 3128 3129 3130 3131 3132 3134 3135 3136 3138 3138 3139 3141 3142 3143 3144 3144 3145 3146 3146 3147 3148 3149 3149 3150 3151 3152 3153 3153 3154 3154 3155 3155 3156 3156 3156 3156 3156 3157 3157 3157 3158 3158 3158 3157 3157 3157 3158 3158 3158 3158 3158 3158 3158 3158 3158 3158
3088 3088 3088 3090 3091 3091 3091 3094 3096 3095 3093 3094 3097 3102 3104 3104 3105 3107 3109 3111 3114 3115 3117 3119 3120 3121 3123 3125 3127 3128 3128 3129 3131 3132 3133 3135 3136 3137 3138 3138 3140 3141 3142 3142 3143 3145 3146 3146 3147 3148 3148 3149 3150 3151 3151 3152 3153 3153 3154 3154 3155 3155 3155 3155 3155 3155 3156 3156 3157 3157 3157 3157 3156 3156 3157 3157 3157 3157 3157 3157 3157 3157 3157 3157 3157
3088 3088 3089 3090 3090 3090 3090 3092 3094 3093 3091 3093 3098 3101 3102 3103 3105 3106 3107 3109 3111 3113 3116 3118 3119 3121 3122 3124 3126 3127 3128 3129 3130 3132 3133 3134 3135 3136 3137 3138 3139 3140 3141 3142 3143 3144 3145 3146 3146 3147 3148 3149 3150 3150 3151 3152 3153 3153 3153 3154 3154 3154 3154 3154 3155 3155 3155 3155 3156 3156 3156 3156 3156 3156 3156 3156 3156 3156 3156 3156 3156 3156 3156 3156 3156
3087 3087 3087 3087 3087 3087 3089 3090 3091 3090 3090 3093 3097 3099 3101 3103 3104 3105 3106 3107 3109 3112 3115 3117 3118 3120 3121 3123 3125 3126 3128 3129 3130 3132 3133 3134 3135 3135 3136 3137 3138 3139 3140 3141 3143 3144 3145 3145 3146 3147 3148 3149 3149 3150 3151 3151 3152 3152 3153 3153 3154 3154 3154 3154 3154 3154 3154 3154 3155 3155 3155 3156 3155 3155 3155 3155 3155 3155 3155 3155 3155 3155 3155 3155 3155
3085 3085 3084 3084 3084 3084 3086 3087 3088 3089 3090 3093 3096 3097 3099 3100 3100 3102 3105 3106 3107 3111 3114 3115 3117 3118 3120 3122 3124 3126 3127 3128 3130 3131 3133 3134 3134 3135 3136 3137 3138 3139 3140 3141 3142 3143 3144 3145 3146 3147 3147 3148 3149 3150 3150 3151 3151 3152 3152 3153 3153 3153 3153 3154 3154 3154 3154 3154 3154 3154 3154 3155 3155 3155 3154 3154 3154 3154 3153 3153 3154 3154 3154 3154 3154
3084 3083 3082 3081 3081 3082 3083 3084 3087 3089 3090 3092 3094 3095 3096 3098 3098 3100 3103 3105 3107 3110 3112 3114 3115 3117 3119 3121 3123 3125 3126 3127 3129 3131 3132 3133 3134 3135 3136 3137 3138 3139 3140 3141 3142 3143 3144 3145 3145 3146 3146 3147 3148 3148 3149 3150 3151 3151 3152 3152 3152 3152 3153 3153 3153 3153 3153 3153 3153 3153 3154 3154 3154 3154 3153 3153 3153 3153 3152 3152 3153 3152 3152 3152 3152
3083 3081 3081 3080 3080 3080 3081 3083 3085 3087 3089 3090 3092 3093 3094 3096 3098 3100 3102 3104 3106 3108 3110 3112 3114 3117 3119 3120 3122 3124 3125 3127 3128 3130 3131 3133 3134 3135 3135 3136 3137 3138 3139 3140 3141 3142 3143 3144 3144 3145 3145 3146 3146 3147 3148 3148 3149 3150 3151 3151 3151 3151 3151 3151 3152 3152 3152 3152 3152 3152 3152 3152 3152 3152 3152 3152 3152 3151 3151 3151 3151 3150 3150 3149 3150
3082 3080 3080 3080 3079 3079 3081 3082 3084 3085 3087 3089 3090 3092 3094 3095 3097 3099 3101 3103 3105 3108 3110 3112 3113 3115 3117 3119 3121 3122 3124 3126 3128 3129 3131 3132 3133 3134 3135 3136 3137 3137 3138 3139 3140 3141 3142 3142 3143 3144 3144 3145 3145 3145 3146 3147 3147 3148 3149 3149 3150 3150 3150 3150 3150 3150 3150 3150 3150 3150 3150 3150 3150 3150 3149 3150 3149 3149 3149 3149 3149 3148 3148 3147 3147
3080 3079 3079 3080 3079 3079 3080 3082 3083 3085 3086 3088 3090 3092 3094 3094 3096 3098 3101 3103 3105 3107 3109 3111 3112 3114 3116 3118 3120 3121 3123 3125 3127 3128 3130 3131 3132 3133 3134 3135 3136 3137 3138 3138 3139 3140 3140 3141 3142 3143 3144 3144 3145 3145 3145 3146 3146 3147 3147 3147 3147 3147 3147 3147 3147 3148 3148 3148 3148 3148 3148 3148 3148 3147 3147 3146 3146 3146 3146 3146 3146 3146 3145 3144 3144
3081 3080 3079 3079 3079 3079 3080 3081 3083 3084 3086 3088 3089 3091 3093 3094 3095 3098 3100 3103 3105 3107 3108 3110 3111 3113 3115 3117 3119 3120 3123 3124 3126 3127 3129 3130 3131 3132 3133 3134 3135 3136 3136 3137 3138 3139 3139 3140 3141 3142 3143 3144 3145 3145 3145 3145 3145 3145 3145 3145 3145 3145 3145 3145 3145 3145 3145 3145 3145 3145 3144 3144 3145 3145 3144 3143 3143 3143 3143 3143 3142 3142 3141 3141 3141
3082 3081 3080 3080 3080 3080 3080 3081 3082 3084 3085 3086 3088 3090 3091 3093 3095 3098 3100 3102 3104 3106 3108 3109 3111 3113 3115 3116 3118 3120 3122 3124 3125 3127 3128 3129 3130 3131 3132 3133 3134 3135 3135 3136 3137 3138 3139 3140 3140 3141 3142 3143 3144 3145 3145 3145 3145 3145 3145 3145 3144 3144 3144 3144 3143 3143 3142 3142 3142 3141 3141 3141 3141 3141 3141 3141 3141 3140 3140 3139 3139 3138 3137 3137 3137
3082 3081 3081 3081 3080 3080 3080 3080 3081 3083 3084 3086 3088 3090 3091 3093 3095 3097 3100 3102 3103 3105 3107 3109 3111 3112 3114 3115 3117 3119 3121 3123 3124 3125 3127 3128 3129 3129 3130 3131 3132 3133 3134 3136 3137 3138 3139 3139 3140 3140 3141 3142 3142 3143 3144 3144 3144 3144 3144 3144 3143 3143 3142 3142 3142 3141 3141 3140 3140 3139 3139 3139 3139 3138 3138 3138 3137 3137 3136 3136 3136 3135 3133 3133 3133
3082 3081 3081 3081 3081 3081 3081 3081 3081 3083 3084 3086 3088 3090 3091 3093 3095 3097 3099 3101 3102 3104 3106 3108 3110 3111 3112 3114 3115 3117 3119 3121 3122 3124 3125 3126 3127 3128 3129 3130 3131 3132 3133 3134 3135 3136 3137 3138 3139 3139 3140 3140 3141 3141 3141 3142 3142 3142 3142 3142 3141 3141 3141 3140 3140 3139 3139 3138 3138 3138 3137 3137 3136 3136 3136 3135 3134 3134 3133 3133 3132 3131 3130 3129 3129
3082 3082 3081 3081 3082 3082 3082 3082 3082 3083 3084 3086 3088 3089 3090 3092 3095 3096 3098 3100 3102 3103 3105 3107 3108 3110 3111 3112 3114 3116 3118 3119 3121 3123 3124 3125 3126 3127 3128 3129 3130 3131 3132 3133 3134 3134 3135 3136 3137 3137 3138 3138 3139 3139 3139 3139 3139 3139 3139 3139 3139 3139 3139 3138 3138 3137 3136 3136 3135 3135 3134 3134 3134 3133 3133 3132 3132 3131 3130 3129 3129 3127 3126 3125 3125
3083 3083 3083 3082 3082 3082 3083 3083 3083 3083 3084 3085 3087 3089 3090 3091 3094 3095 3096 3098 3100 3102 3104 3105 3107 3108 3109 3110 3112 3114 3116 3118 3120 3121 3123 3124 3125 3126 3126 3128 3129 3130 3130 3131 3132 3133 3133 3134 3135 3135 3136 3136 3137 3137 3137 3137 3137 3136 3136 3136 3136 3136 3136 3135 3135 3134 3134 3133 3133 3132 3131 3131 3131 3130 3130 3129 3129 3128 3127 3126 3125 3124 3123 3122 3120
3084 3084 3083 3083 3083 3083 3083 3084 3084 3084 3084 3085 3087 3088 3090 3091 3093 3095 3096 3096 3098 3101 3102 3103 3105 3106 3107 3109 3112 3114 3116 3117 3118 3120 3122 3123 3124 3125 3126 3127 3128 3128 3129 3130 3131 3131 3132 3132 3133 3133 3134 3134 3134 3134 3134 3134 3134 3134 3133 3133 3133 3133 3133 3132 3132 3132 3131 3131 3130 3129 3129 3128 3128 3127 3127 3126 3125 3125 3124 3123 3121 3120 3119 3118 3116
3084 3084 3084 3084 3083 3083 3084 3084 3084 3084 3085 3085 3086 3088 3089 3089 3090 3093 3095 3096 3097 3099 3101 3102 3103 3104 3105 3108 3111 3113 3115 3116 3117 3119 3120 3121 3122 3123 3124 3125 3126 3127 3127 3128 3129 3130 3130 3130 3131 3131 3131 3131 3131 3131 3130 3130 3131 3131 3131 3130 3130 3130 3130 3130 3129 3129 3128 3128 3127 3126 3126 3125 3125 3124 3124 3123 3122 3121 3120 3118 3117 3116 3114 3113 3112
3084 3084 3084 3084 3084 3084 3084 3084 3085 3085 3085 3085 3086 3086 3087 3087 3089 3091 3094 3096 3097 3098 3100 3101 3101 3102 3104 3106 3109 3111 3112 3114 3116 3117 3118 3119 3120 3121 3122 3123 3124 3124 3125 3126 3127 3128 3128 3128 3128 3128 3128 3128 3128 3127 3127 3127 3128 3128 3128 3128 3127 3127 3127 3127 3126 3126 3125 3124 3124 3123 3122 3122 3121 3121 3120 3119 3118 3117 3116 3114 3113 3112 3110 3108 3107
3084 3084 3084 3085 3085 3085 3085 3085 3085 3086 3086 3086 3086 3085 3086 3088 3089 3091 3093 3095 3096 3097 3099 3100 3101 3102 3103 3105 3107 3109 3110 3112 3113 3115 3116 3117 3118 3119 3120 3120 3121 3122 3123 3123 3124 3124 3125 3125 3125 3125 3125 3125 3124 3124 3124 3124 3125 3125 3125 3125 3125 3124 3124 3123 3123 3122 3122 3121 3120 3120 3119 3118 3118 3117 3116 3115 3114 3113 3111 3110 3108 3107 3105 3104 3102
3084 3085 3085 3086 3085 3085 3085 3085 3086 3086 3086 3087 3086 3086 3087 3088 3089 3090 3092 3093 3094 3095 3097 3099 3100 3101 3102 3104 3105 3107 3108 3109 3110 3112 3113 3114 3115 3116 3117 3118 3118 3119 3119 3120 3120 3121 3121 3121 3121 3121 3121 3121 3121 3121 3122 3122 3123 3123 3123 3122 3122 3121 3120 3120 3119 3119 3118 3118 3117 3116 3115 3115 3114 3113 3112 3110 3109 3108 3107 3105 3104 3102 3101 3100 3098
3085 3085 3085 3086 3086 3086 3086 3086 3086 3086 3086 3086 3086 3087 3087 3088 3088 3089 3091 3092 3093 3095 3096 3098 3099 3100 3101 3102 3104 3105 3105 3106 3107 3109 3110 3111 3112 3113 3114 3114 3115 3115 3116 3117 3117 3118 3118 3118 3118 3117 3117 3118 3119 3119 3120 3120 3120 3120 3119 3118 3118 3117 3117 3116 3116 3115 3114 3114 3113 3112 3112 3111 3110 3109 3108 3106 3105 3104 3103 3101 3100 3098 3096 3095 3093
3085 3086 3086 3086 3086 3086 3086 3086 3086 3086 3086 3087 3087 3087 3087 3088 3088 3089 3090 3091 3092 3094 3095 3096 3098 3099 3100 3101 3101 3102 3103 3104 3105 3106 3108 3109 3110 3110 3111 3111 3112 3113 3114 3114 3115 3115 3116 3115 3115 3115 3115 3116 3116 3116 3117 3117 3117 3116 3115 3114 3114 3113 3113 3113 3112 3111 3111 3110 3109 3109 3108 3107 3106 3105 3104 3102 3101 3100 3098 3097 3095 3094 3092 3090 3088
3085 3086 3086 3086 3086 3086 3086 3086 3085 3086 3086 3087 3088 3088 3088 3088 3089 3089 3090 3091 3092 3093 3094 3095 3096 3097 3098 3099 3100 3101 3102 3102 3104 3105 3106 3107 3108 3108 3109 3110 3111 3111 3112 3112 3113 3113 3113 3113 3113 3113 3113 3113 3113 3113 3114 3114 3113 3112 3111 3110 3110 3109 3109 3109 3109 3108 3108 3107 3106 3105 3104 3103 3102 3101 3100 3098 3097 3095 3094 3092 3090 3089 3087 3085 3083
3084 3085 3085 3085 3086 3085 3085 3085 3084 3085 3086 3087 3087 3087 3088 3089 3090 3090 3090 3091 3091 3092 3093 3094 3095 3096 3096 3097 3098 3100 3101 3102 3103 3104 3105 3106 3106 3107 3108 3108 3109 3110 3110 3111 3111 3111 3111 3111 3110 3110 3110 3110 3110 3110 3110 3110 3109 3109 3108 3107 3107 3107 3107 3106 3106 3105 3104 3104 3103 3101 3100 3099 3098 3096 3095 3094 3092 3091 3089 3087 3085 3083 3082 3080 3077
3083 3084 3084 3085 3085 3085 3085 3084 3084 3084 3085 3086 3087 3087 3088 3089 3089 3090 3090 3091 3091 3091 3092 3093 3094 3095 3095 3097 3098 3099 3100 3101 3102 3103 3104 3105 3105 3106 3107 3107 3108 3108 3109 3109 3109 3109 3108 3108 3108 3108 3107 3107 3107 3107 3106 3106 3106 3106 3105 3105 3104 3104 3104 3103 3102 3102 3101 3100 3099 3097 3096 3095 3094 3092 3091 3089 3088 3086 3084 3083 3081 3078 3076 3075 3072
3082 3083 3084 3085 3085 3085 3085 3085 3084 3084 3084 3085 3086 3087 3087 3087 3088 3089 3089 3090 3090 3091 3091 3092 3093 3094 3095 3096 3097 3098 3099 3100 3101 3102 3103 3103 3104 3105 3106 3106 3107 3107 3107 3106 3106 3106 3105 3105 3105 3105 3104 3104 3104 3104 3103 3103 3103 3103 3103 3102 3102 3102 3101 3100 3099 3098 3097 3096 3094 3093 3092 3090 3089 3088 3087 3085 3084 3082 3080 3078 3076 3073 3071 3069 3067
3081 3082 3083 3084 3084 3085 3085 3085 3085 3084 3084 3084 3085 3085 3086 3086 3087 3088 3088 3089 3089 3090 3090 3091 3092 3093 3093 3094 3095 3096 3097 3097 3098 3099 3100 3101 3102 3103 3103 3104 3104 3104 3104 3103 3103 3102 3102 3102 3102 3102 3101 3101 3101 3101 3101 3101 3101 3101 3100 3100 3099 3099 3098 3097 3096 3095 3093 3092 3090 3089 3088 3087 3086 3084 3083 3081 3079 3077 3075 3073 3071 3069 3067 3065 3063
3080 3081 3082 3083 3083 3084 3084 3085 3085 3084 3084 3083 3083 3084 3084 3085 3086 3086 3087 3087 3087 3088 3088 3089 3090 3090 3091 3092 3092 3093 3094 3095 3096 3097 3097 3098 3099 3100 3100 3101 3101 3100 3100 3100 3099 3099 3099 3099 3099 3099 3098 3098 3098 3099 3099 3098 3098 3098 3098 3097 3097 3095 3094 3093 3092 3090 3089 3088 3087 3086 3085 3084 3082 3080 3078 3076 3074 3072 3070 3069 3067 3065 3063 3062 3060
3080 3080 3081 3082 3082 3083 3083 3084 3084 3084 3083 3083 3083 3083 3084 3084 3084 3085 3085 3085 3086 3086 3086 3087 3087 3088 3088 3089 3090 3090 3091 3092 3093 3094 3095 3095 3096 3097 3097 3098 3097 3097 3097 3096 3096 3096 3096 3096 3096 3096 3096 3096 3096 3096 3096 3095 3095 3095 3094 3094 3093 3091 3090 3089 3088 3088 3087 3086 3085 3084 3082 3080 3078 3076 3074 3072 3070 3068 3066 3065 3063 3062 3060 3059 3057
3081 3081 3081 3082 3082 3082 3082 3082 3082 3082 3082 3082 3082 3082 3082 3082 3083 3083 3083 3083 3084 3084 3084 3085 3085 3085 3086 3087 3088 3089 3090 3090 3091 3092 3092 3093 3094 3094 3094 3095 3094 3094 3094 3093 3093 3093 3093 3093 3093 3093 3093 3093 3093 3092 3092 3092 3091 3091 3090 3089 3088 3088 3087 3087 3086 3086 3084 3083 3081 3080 3078 3076 3074 3072 3070 3069 3067 3065 3064 3062 3061 3059 3058 3056 3055
3081 3082 3082 3082 3082 3082 3082 3082 3082 3082 3082 3081 3081 3081 3081 3081 3081 3081 3081 3082 3082 3082 3083 3083 3083 3084 3085 3085 3086 3087 3088 3089 3089 3090 3090 3090 3091 3091 3092 3092 3092 3091 3091 3091 3091 3091 3090 3090 3090 3090 3090 3090 3089 3089 3089 3088 3087 3087 3086 3086 3086 3086 3086 3085 3083 3082 3080 3079 3078 3076 3074 3073 3071 3070 3068 3067 3065 3063 3062 3060 3059 3057 3056 3055 3053
3080 3081 3082 3082 3082 3082 3082 3082 3081 3081 3081 3081 3081 3081 3080 3080 3080 3080 3081 3081 3081 3081 3082 3082 3083 3083 3084 3085 3086 3086 3087 3087 3087 3087 3087 3087 3088 3088 3089 3089 3089 3089 3089 3088 3088 3088 3088 3087 3087 3087 3086 3086 3086 3086 3085 3085 3084 3084 3085 3085 3085 3084 3082 3081 3080 3078 3077 3076 3075 3073 3072 3070 3069 3067 3065 3064 3063 3061 3060 3059 3057 3056 3055 3053 3052
3080 3080 3081 3081 3082 3082 3082 3082 3081 3081 3081 3081 3081 3080 3080 3080 3080 3080 3080 3080 3081 3081 3081 3082 3082 3083 3083 3083 3084 3084 3084 3084 3085 3085 3084 3085 3085 3085 3086 3086 3086 3086 3086 3085 3085 3085 3084 3084 3084 3083 3083 3083 3083 3083 3083 3083 3083 3083 3083 3083 3082 3080 3079 3078 3077 3076 3075 3073 3072 3070 3069 3067 3065 3064 3062 3061 3060 3059 3058 3057 3056 3055 3054 3053 3051
3079 3079 3080 3080 3081 3081 3081 3081 3081 3081 3081 3080 3080 3080 3080 3080 3080 3080 3080 3079 3079 3079 3079 3079 3080 3080 3081 3081 3081 3081 3081 3081 3081 3081 3082 3082 3082 3082 3082 3083 3083 3083 3083 3082 3082 3082 3081 3081 3081 3081 3081 3081 3081 3081 3082 3082 3082 3081 3080 3079 3078 3077 3076 3075 3074 3073 3072 3070 3069 3067 3065 3064 3062 3061 3060 3060 3059 3058 3057 3056 3055 3054 3053 3052 3051
3079 3079 3079 3079 3079 3080 3080 3080 3080 3080 3080 3080 3079 3079 3079 3079 3079 3079 3079 3078 3078 3078 3078 3077 3077 3078 3078 3079 3079 3079 3079 3078 3078 3079 3079 3080 3080 3080 3080 3080 3080 3080 3080 3079 3079 3079 3079 3079 3079 3079 3079 3080 3080 3080 3080 3080 3079 3078 3077 3077 3076 3075 3074 3073 3072 3071 3069 3067 3065 3064 3063 3062 3061 3060 3060 3059 3058 3057 3056 3055 3054 3053 3052 3051 3050
3078 3078 3078 3078 3078 3078 3078 3079 3079 3079 3079 3079 3079 3079 3078 3078 3078 3078 3078 3077 3077 3076 3077 3076 3076 3076 3077 3077 3077 3077 3077 3076 3076 3077 3077 3077 3077 3077 3077 3077 3077 3077 3077 3077 3077 3077 3077 3077 3078 3078 3078 3078 3078 3078 3078 3077 3076 3076 3075 3074 3073 3072 3071 3070 3069 3068 3066 3064 3063 3062 3061 3061 3060 3059 3059 3058 3057 3056 3055 3054 3053 3052 3051 3049 3048
3078 3078 3078 3078 3078 3077 3077 3077 3077 3078 3078 3078 3078 3078 3077 3077 3077 3077 3077 3076 3076 3075 3075 3075 3075 3075 3075 3076 3076 3075 3075 3075 3074 3075 3075 3075 3074 3074 3074 3074 3074 3074 3074 3074 3074 3075 3075 3075 3076 3076 3076 3076 3076 3076 3076 3075 3074 3073 3073 3072 3071 3070 3069 3067 3066 3065 3064 3063 3062 3061 3061 3060 3059 3058 3057 3057 3056 3055 3054 3053 3052 3051 3049 3048 3047
3078 3078 3077 3077 3077 3077 3077 3077 3077 3077 3076 3076 3076 3076 3076 3075 3075 3075 3075 3075 3075 3074 3074 3073 3074 3074 3074 3074 3074 3073 3073 3072 3072 3072 3072 3072 3072 3071 3071 3071 3071 3072 3072 3072 3073 3073 3073 3074 3074 3074 3074 3074 3074 3074 3074 3073 3072 3071 3071 3069 3068 3067 3066 3065 3064 3063 3062 3062 3061 3060 3060 3059 3058 3057 3056 3055 3055 3054 3053 3052 3051 3049 3048 3047 3046
3078 3077 3077 3077 3077 3076 3076 3076 3076 3076 3075 3075 3075 3075 3074 3074 3074 3074 3074 3074 3073 3073 3072 3072 3072 3072 3072 3072 3072 3071 3070 3070 3070 3070 3070 3069 3069 3069 3069 3069 3069 3070 3070 3070 3071 3071 3072 3072 3072 3072 3073 3073 3073 3072 3072 3071 3070 3069 3068 3067 3066 3065 3064 3063 3063 3062 3061 3061 3060 3059 3058 3057 3056 3056 3055 3054 3054 3053 3052 3051 3049 3048 3047 3046 3045
3078 3077 3077 3077 3076 3076 3076 3075 3075 3075 3074 3074 3074 3073 3073 3073 3073 3073 3073 3072 3072 3071 3071 3071 3071 3071 3071 3071 3070 3070 3069 3068 3068 3068 3067 3067 3067 3067 3067 3068 3068 3068 3068 3069 3069 3069 3070 3070 3070 3071 3071 3071 3071 3070 3069 3069 3068 3067 3066 3065 3064 3063 3063 3062 3061 3061 3060 3059 3058 3057 3057 3056 3055 3055 3054 3053 3053 3052 3051 3050 3048 3047 3046 3045 3044
3078 3078 3077 3077 3076 3076 3075 3074 3074 3074 3073 3073 3073 3072 3072 3072 3072 3072 3071 3071 3071 3070 3070 3070 3069 3069 3069 3069 3069 3068 3067 3067 3066 3066 3065 3065 3065 3066 3066 3066 3066 3066 3067 3067 3067 3067 3068 3068 3069 3069 3069 3069 3068 3068 3067 3066 3065 3065 3064 3064 3063 3063 3062 3061 3060 3059 3059 3058 3057 3056 3056 3055 3055 3054 3053 3053 3052 3051 3050 3049 3048 3047 3046 3044 3043
3078 3078 3077 3077 3076 3075 3075 3074 3074 3073 3073 3072 3072 3072 3072 3072 3071 3071 3071 3070 3070 3069 3069 3068 3068 3067 3067 3067 3066 3066 3066 3065 3065 3064 3064 3064 3064 3064 3064 3064 3064 3065 3065 3065 3065 3066 3066 3067 3067 3067 3067 3066 3066 3066 3065 3065 3064 3064 3064 3063 3063 3062 3061 3060 3059 3058 3058 3057 3057 3056 3056 3055 3055 3054 3053 3052 3051 3050 3049 3048 3047 3046 3045 3044 3043
3078 3078 3077 3077 3076 3076 3075 3074 3074 3073 3073 3072 3071 3071 3071 3071 3070 3070 3070 3069 3069 3068 3068 3067 3066 3066 3065 3065 3064 3064 3064 3063 3063 3062 3062 3062 3062 3062 3063 3063 3063 3063 3063 3064 3064 3065 3065 3065 3065 3065 3065 3065 3065 3064 3064 3064 3064 3063 3063 3063 3062 3061 3060 3059 3059 3058 3058 3057 3057 3056 3056 3055 3054 3053 3053 3052 3051 3050 3049 3048 3047 3046 3045 3044 3043
3078 3078 3077 3077 3076 3076 3075 3075 3074 3074 3073 3072 3071 3071 3070 3070 3069 3069 3069 3069 3068 3067 3067 3066 3065 3064 3064 3063 3063 3062 3062 3062 3061 3061 3060 3060 3061 3061 3061 3061 3062 3062 3063 3063 3064 3064 3064 3064 3064 3064 3063 3063 3063 3063 3063 3063 3063 3063 3062 3062 3061 3061 3060 3059 3059 3058 3058 3057 3057 3056 3055 3055 3054 3053 3052 3051 3051 3050 3049 3048 3047 3046 3045 3044 3043
3078 3078 3077 3077 3076 3076 3075 3075 3075 3074 3073 3072 3071 3071 3070 3069 3068 3068 3068 3068 3067 3066 3065 3065 3064 3063 3062 3061 3061 3061 3060 3060 3060 3059 3059 3059 3059 3060 3060 3060 3061 3062 3062 3062 3062 3062 3062 3062 3062 3062 3062 3062 3062 3062 3062 3062 3062 3062 3062 3061 3061 3060 3060 3059 3059 3058 3058 3057 3057 3056 3055 3054 3054 3053 3052 3051 3050 3050 3049 3048 3047 3046 3045 3044 3042
3078 3078 3077 3077 3076 3076 3075 3075 3074 3074 3073 3072 3071 3070 3069 3068 3067 3066 3066 3066 3066 3065 3064 3064 3063 3062 3061 3060 3060 3059 3059 3058 3058 3058 3058 3058 3058 3059 3059 3059 3060 3060 3061 3061 3061 3061 3061 3061 3061 3061 3061 3061 3061 3061 3061 3061 3061 3061 3061 3061 3061 3060 3060 3059 3059 3058 3058 3057 3056 3056 3055 3054 3053 3053 3052 3051 3050 3049 3048 3048 3047 3046 3044 3043 3042
3078 3078 3077 3076 3076 3075 3075 3074 3073 3073 3072 3071 3070 3069 3068 3067 3066 3065 3064 3064 3064 3064 3063 3062 3062 3061 3060 3059 3058 3058 3058 3058 3057 3057 3057 3057 3058 3058 3058 3058 3059 3059 3059 3059 3060 3060 3060 3060 3060 3060 3060 3060 3060 3060 3060 3060 3061 3060 3060 3060 3060 3060 3060 3059 3059 3058 3057 3057 3056 3055 3055 3054 3053 3052 3051 3051 3050 3049 3048 3047 3046 3045 3044 3043 3042
3078 3077 3077 3076 3076 3075 3074 3073 3073 3072 3071 3070 3069 3068 3067 3066 3065 3064 3063 3062 3062 3062 3061 3061 3060 3059 3058 3058 3058 3057 3057 3057 3057 3057 3057 3057 3057 3057 3057 3057 3057 3058 3058 3058 3059 3059 3059 3059 3060 3060 3059 3059 3059 3059 3060 3060 3060 3060 3060 3060 3060 3060 3059 3059 3058 3057 3057 3056 3056 3055 3054 3053 3052 3052 3051 3050 3050 3049 3048 3047 3046 3045 3044 3043 3042